This is the latest recevied weather packets stored in our database for station/object WE1C. If no packets are shown the sender has not sent any weather packets the latest 10 day(s).
| Time | Temp. | Humidity | Pressure | Rain* | Wind** | Luminosity | Snow |
|---|---|---|---|---|---|---|---|
| 1777926638 | 21.67° C | 32% | 1036.1 hPa | 0 mm | - | 269 W/m² | - |
| 1777926333 | 21.11° C | 31% | 1036.2 hPa | 0 mm | - | 350 W/m² | - |
| 1777926031 | 21.11° C | 31% | 1036.4 hPa | 0 mm | - | 363 W/m² | - |
| 1777925727 | 20.56° C | 32% | 1036.2 hPa | 0 mm | - | 296 W/m² | - |
| 1777925426 | 21.11° C | 33% | 1036.5 hPa | 0 mm | - | 248 W/m² | - |
| 1777925121 | 21.67° C | 31% | 1036.5 hPa | 0 mm | - | 583 W/m² | - |
| 1777924819 | 21.67° C | 32% | 1036.5 hPa | 0 mm | - | 610 W/m² | - |
| 1777924514 | 21.67° C | 31% | 1036.3 hPa | 0 mm | - | 589 W/m² | - |
| 1777924211 | 21.67° C | 31% | 1036.3 hPa | 0 mm | - | 111 W/m² | - |
| 1777923908 | 21.11° C | 32% | 1036.4 hPa | 0 mm | - | 616 W/m² | - |
| 1777923603 | 20° C | 33% | 1036.5 hPa | 0 mm | - | 681 W/m² | - |
| 1777923300 | 21.11° C | 32% | 1036.5 hPa | 0 mm | - | 161 W/m² | - |
| 1777922999 | 21.67° C | 32% | 1036.5 hPa | 0 mm | - | 667 W/m² | - |
| 1777922696 | 21.67° C | 31% | 1036.5 hPa | 0 mm | - | 596 W/m² | - |
| 1777922395 | 21.67° C | 31% | 1036.4 hPa | 0 mm | - | 692 W/m² | - |
| 1777922092 | 20.56° C | 32% | 1036.6 hPa | 0 mm | - | 231 W/m² | - |
| 1777921787 | 21.11° C | 30% | 1036.4 hPa | 0 mm | - | 615 W/m² | - |
| 1777921483 | 21.67° C | 29% | 1036.5 hPa | 0 mm | - | 694 W/m² | - |
| 1777921180 | 21.67° C | 29% | 1036.6 hPa | 0 mm | - | 704 W/m² | - |
| 1777920878 | 21.11° C | 30% | 1036.8 hPa | 0 mm | - | 713 W/m² | - |
| 1777920573 | 21.11° C | 29% | 1036.6 hPa | 0 mm | - | 695 W/m² | - |
| 1777920269 | 21.67° C | 29% | 1036.5 hPa | 0 mm | - | 704 W/m² | - |
| 1777919965 | 21.11° C | 32% | 1036.8 hPa | 0 mm | - | 161 W/m² | - |
| 1777919663 | 21.11° C | 30% | 1037 hPa | 0 mm | - | 720 W/m² | - |
| 1777919361 | 21.11° C | 29% | 1037 hPa | 0 mm | - | 715 W/m² | - |
* Rain latest hour (hover to see other rain measurements)
** Current wind speed in m/s (hover to see current wind gust speed)